QPF
0.01 0.01 0.02 0.03 0.03 0.03 0.02 0.02 0.02 0.02 0.02 0.01 0.01 0.02 0.02 0.02 0.01 0.01 0.01 0.01 0.01 0.02 0.02 0.03 0.03 0.04 0.04 0.04 0.04 0.05 0.05 0.05 0.04 0.04 0.03 0.01 0.01 0.00 0.00 0.00 0.00 0.00 0.00
0.02 0.02 0.02 0.02 0.02 0.02 0.02 0.02 0.02 0.03 0.02 0.01 0.01 0.01 0.02 0.03 0.03 0.03 0.02 0.01 0.02 0.03 0.03 0.03 0.04 0.05 0.05 0.05 0.04 0.04 0.04 0.03 0.03 0.03 0.02 0.01 0.01 0.00 0.00 0.00 0.00 0.00 0.00
0.02 0.03 0.02 0.02 0.02 0.02 0.01 0.02 0.02 0.02 0.02 0.01 0.01 0.01 0.01 0.02 0.03 0.04 0.05 0.04 0.04 0.04 0.04 0.03 0.04 0.04 0.04 0.04 0.04 0.03 0.03 0.03 0.02 0.02 0.01 0.01 0.01 0.00 0.00 0.00 0.00 0.00 0.00
0.02 0.02 0.02 0.02 0.02 0.02 0.01 0.01 0.01 0.01 0.01 0.01 0.01 0.01 0.01 0.01 0.02 0.03 0.04 0.05 0.05 0.05 0.05 0.04 0.04 0.03 0.04 0.03 0.03 0.02 0.02 0.02 0.01 0.01 0.01 0.00 0.00 0.00 0.00 0.00 0.00 0.00 0.00
0.01 0.02 0.02 0.02 0.02 0.02 0.01 0.01 0.01 0.01 0.01 0.01 0.01 0.01 0.01 0.01 0.01 0.02 0.03 0.03 0.04 0.05 0.05 0.05 0.04 0.04 0.03 0.03 0.02 0.02 0.02 0.01 0.01 0.01 0.00 0.00 0.00 0.00 0.00 0.00 0.00 0.00 0.00
0.01 0.01 0.01 0.01 0.02 0.02 0.01 0.01 0.01 0.01 0.01 0.01 0.01 0.01 0.01 0.01 0.01 0.02 0.02 0.02 0.03 0.04 0.04 0.03 0.03 0.02 0.02 0.02 0.01 0.01 0.01 0.01 0.01 0.00 0.00 0.00 0.00 0.00 0.00 0.00 0.00 0.01 0.01
0.01 0.01 0.01 0.01 0.01 0.01 0.01 0.01 0.01 0.01 0.01 0.01 0.01 0.01 0.01 0.01 0.02 0.02 0.02 0.02 0.02 0.02 0.02 0.01 0.01 0.01 0.01 0.01 0.01 0.01 0.01 0.00 0.00 0.01 0.01 0.00 0.00 0.00 0.01 0.01 0.01 0.01 0.00
0.00 0.00 0.01 0.00 0.01 0.01 0.01 0.01 0.01 0.01 0.01 0.00 0.01 0.01 0.01 0.01 0.02 0.02 0.01 0.01 0.01 0.01 0.01 0.01 0.01 0.01 0.00 0.01 0.01 0.01 0.00 0.00 0.00 0.00 0.01 0.00 0.00 0.00 0.01 0.01 0.01 0.01 0.01
0.00 0.00 0.00 0.00 0.00 0.00 0.00 0.00 0.00 0.00 0.00 0.00 0.01 0.01 0.01 0.01 0.01 0.01 0.01 0.01 0.01 0.01 0.01 0.01 0.00 0.00 0.00 0.01 0.00 0.00 0.00 0.00 0.00 0.00 0.00 0.00 0.00 0.00 0.01 0.01 0.01 0.01 0.01
0.00 0.00 0.00 0.00 0.00 0.00 0.00 0.00 0.00 0.00 0.00 0.01 0.01 0.01 0.01 0.01 0.01 0.01 0.02 0.01 0.01 0.01 0.00 0.00 0.00 0.00 0.00 0.01 0.01 0.01 0.00 0.00 0.00 0.00 0.00 0.00 0.01 0.01 0.01 0.01 0.01 0.01 0.01
0.00 0.00 0.00 0.00 0.00 0.01 0.01 0.01 0.01 0.01 0.01 0.01 0.01 0.01 0.01 0.01 0.01 0.01 0.02 0.01 0.01 0.01 0.01 0.00 0.00 0.01 0.01 0.01 0.01 0.01 0.01 0.01 0.01 0.01 0.01 0.00 0.01 0.01 0.01 0.01 0.01 0.01 0.02
0.00 0.00 0.00 0.00 0.00 0.00 0.00 0.00 0.01 0.01 0.01 0.01 0.01 0.01 0.01 0.01 0.01 0.01 0.01 0.01 0.01 0.01 0.00 0.00 0.00 0.01 0.01 0.01 0.01 0.01 0.01 0.01 0.01 0.01 0.01 0.01 0.00 0.01 0.01 0.01 0.01 0.01 0.01
0.00 0.00 0.00 0.00 0.00 0.00 0.01 0.01 0.01 0.01 0.01 0.01 0.01 0.01 0.01 0.01 0.01 0.01 0.01 0.01 0.01 0.01 0.00 0.00 0.01 0.01 0.01 0.01 0.01 0.01 0.01 0.02 0.02 0.01 0.01 0.01 0.00 0.01 0.01 0.01 0.02 0.02 0.02
0.00 0.00 0.00 0.00 0.01 0.01 0.01 0.01 0.01 0.01 0.01 0.01 0.01 0.01 0.01 0.01 0.01 0.01 0.01 0.01 0.01 0.01 0.01 0.00 0.01 0.01 0.01 0.01 0.01 0.01 0.01 0.01 0.01 0.01 0.01 0.01 0.01 0.01 0.02 0.02 0.02 0.02 0.02
0.00 0.00 0.00 0.01 0.01 0.01 0.01 0.01 0.01 0.01 0.01 0.01 0.01 0.01 0.01 0.01 0.01 0.01 0.01 0.01 0.01 0.01 0.01 0.01 0.01 0.01 0.01 0.01 0.01 0.01 0.01 0.01 0.02 0.02 0.02 0.02 0.02 0.02 0.02 0.02 0.02 0.02 0.02
0.01 0.01 0.01 0.01 0.01 0.01 0.01 0.01 0.01 0.01 0.01 0.01 0.01 0.01 0.01 0.01 0.01 0.01 0.01 0.01 0.01 0.01 0.02 0.01 0.01 0.01 0.01 0.01 0.01 0.01 0.01 0.01 0.01 0.02 0.02 0.02 0.02 0.02 0.02 0.02 0.02 0.02 0.02
0.01 0.01 0.01 0.01 0.01 0.01 0.01 0.01 0.01 0.01 0.01 0.01 0.01 0.01 0.01 0.01 0.01 0.01 0.01 0.01 0.01 0.02 0.02 0.01 0.01 0.01 0.01 0.01 0.01 0.01 0.01 0.01 0.01 0.02 0.02 0.02 0.02 0.02 0.02 0.02 0.02 0.02 0.02
0.01 0.01 0.01 0.01 0.01 0.01 0.01 0.01 0.01 0.01 0.01 0.01 0.01 0.01 0.01 0.01 0.01 0.01 0.01 0.02 0.02 0.02 0.02 0.01 0.01 0.01 0.01 0.01 0.01 0.01 0.01 0.01 0.01 0.02 0.02 0.03 0.03 0.03 0.03 0.02 0.02 0.02 0.02
0.01 0.01 0.01 0.01 0.01 0.01 0.01 0.01 0.01 0.01 0.01 0.01 0.01 0.01 0.01 0.01 0.01 0.01 0.01 0.02 0.02 0.01 0.01 0.01 0.01 0.01 0.01 0.01 0.01 0.01 0.01 0.01 0.01 0.02 0.02 0.03 0.03 0.03 0.03 0.03 0.02 0.02 0.02
0.01 0.01 0.01 0.01 0.01 0.01 0.01 0.01 0.01 0.01 0.01 0.01 0.01 0.01 0.01 0.01 0.01 0.01 0.01 0.01 0.01 0.01 0.01 0.01 0.01 0.01 0.01 0.01 0.02 0.02 0.02 0.02 0.02 0.02 0.02 0.02 0.02 0.03 0.03 0.03 0.03 0.03 0.03
0.01 0.01 0.01 0.01 0.01 0.01 0.01 0.01 0.01 0.01 0.01 0.01 0.01 0.01 0.01 0.01 0.01 0.01 0.01 0.01 0.01 0.01 0.01 0.01 0.01 0.01 0.01 0.01 0.02 0.02 0.02 0.02 0.02 0.02 0.02 0.02 0.02 0.03 0.02 0.02 0.02 0.02 0.03
0.01 0.01 0.01 0.01 0.01 0.01 0.01 0.01 0.01 0.01 0.01 0.01 0.00 0.00 0.01 0.01 0.01 0.01 0.01 0.01 0.01 0.01 0.01 0.02 0.02 0.01 0.01 0.01 0.02 0.02 0.02 0.02 0.01 0.02 0.02 0.02 0.02 0.02 0.03 0.03 0.03 0.02 0.02
0.01 0.01 0.01 0.01 0.01 0.01 0.00 0.00 0.00 0.00 0.00 0.00 0.00 0.00 0.01 0.01 0.01 0.01 0.01 0.01 0.01 0.01 0.01 0.01 0.01 0.01 0.01 0.01 0.01 0.02 0.02 0.02 0.02 0.02 0.02 0.03 0.03 0.03 0.03 0.03 0.02 0.02 0.02
0.01 0.01 0.01 0.01 0.01 0.01 0.00 0.00 0.00 0.00 0.00 0.00 0.00 0.01 0.01 0.01 0.01 0.01 0.01 0.01 0.01 0.01 0.01 0.01 0.01 0.01 0.01 0.01 0.01 0.01 0.01 0.02 0.02 0.03 0.03 0.03 0.03 0.03 0.03 0.02 0.02 0.02 0.02
0.01 0.01 0.01 0.01 0.01 0.01 0.01 0.01 0.01 0.00 0.00 0.01 0.01 0.01 0.01 0.01 0.01 0.01 0.01 0.01 0.01 0.01 0.01 0.01 0.01 0.01 0.01 0.01 0.01 0.01 0.01 0.02 0.02 0.02 0.03 0.04 0.03 0.03 0.02 0.03 0.02 0.02 0.02
0.01 0.01 0.01 0.01 0.01 0.01 0.01 0.01 0.01 0.01 0.01 0.01 0.01 0.01 0.01 0.01 0.01 0.01 0.01 0.01 0.01 0.01 0.01 0.01 0.01 0.01 0.01 0.01 0.01 0.01 0.02 0.02 0.02 0.03 0.03 0.04 0.03 0.03 0.03 0.03 0.02 0.02 0.02
MSLP
1020.69 1020.77 1020.88 1020.96 1020.99 1020.97 1020.93 1020.89 1020.90 1020.98 1021.16 1021.43 1021.77 1022.14 1022.51 1022.84 1023.11 1023.34 1023.53 1023.71 1023.93 1024.19 1024.53 1024.93 1025.38 1025.85 1026.29 1026.68 1026.98 1027.18 1027.28 1027.30 1027.25 1027.17 1027.06 1026.95 1026.85 1026.74 1026.61 1026.47 1026.29 1026.08 1025.83
1020.36 1020.38 1020.43 1020.47 1020.46 1020.41 1020.33 1020.26 1020.22 1020.25 1020.36 1020.55 1020.82 1021.11 1021.41 1021.68 1021.91 1022.09 1022.24 1022.40 1022.58 1022.81 1023.11 1023.48 1023.91 1024.37 1024.82 1025.24 1025.59 1025.86 1026.05 1026.17 1026.22 1026.24 1026.22 1026.18 1026.13 1026.05 1025.96 1025.84 1025.67 1025.47 1025.24
1020.12 1020.08 1020.08 1020.07 1020.02 1019.93 1019.80 1019.68 1019.57 1019.53 1019.56 1019.66 1019.83 1020.03 1020.25 1020.45 1020.62 1020.76 1020.88 1021.00 1021.16 1021.36 1021.63 1021.96 1022.36 1022.79 1023.23 1023.65 1024.04 1024.36 1024.63 1024.83 1024.98 1025.09 1025.16 1025.21 1025.23 1025.21 1025.17 1025.08 1024.96 1024.79 1024.58
1019.96 1019.87 1019.81 1019.74 1019.65 1019.50 1019.32 1019.14 1018.97 1018.84 1018.77 1018.78 1018.84 1018.95 1019.08 1019.20 1019.32 1019.42 1019.51 1019.61 1019.74 1019.92 1020.15 1020.45 1020.80 1021.20 1021.61 1022.02 1022.41 1022.76 1023.07 1023.34 1023.57 1023.75 1023.91 1024.03 1024.12 1024.18 1024.19 1024.17 1024.09 1023.98 1023.81
1019.87 1019.73 1019.62 1019.49 1019.33 1019.13 1018.90 1018.65 1018.41 1018.20 1018.05 1017.95 1017.92 1017.93 1017.98 1018.03 1018.09 1018.16 1018.22 1018.30 1018.41 1018.57 1018.77 1019.03 1019.34 1019.69 1020.06 1020.43 1020.80 1021.15 1021.47 1021.76 1022.02 1022.26 1022.47 1022.66 1022.81 1022.93 1023.01 1023.05 1023.05 1023.00 1022.90
1019.89 1019.69 1019.52 1019.33 1019.10 1018.84 1018.54 1018.23 1017.93 1017.65 1017.42 1017.24 1017.12 1017.05 1017.02 1017.01 1017.02 1017.05 1017.09 1017.15 1017.24 1017.37 1017.55 1017.77 1018.03 1018.33 1018.64 1018.96 1019.27 1019.58 1019.88 1020.16 1020.42 1020.68 1020.92 1021.14 1021.33 1021.51 1021.65 1021.76 1021.82 1021.85 1021.82
1020.05 1019.79 1019.54 1019.27 1018.97 1018.64 1018.28 1017.92 1017.56 1017.23 1016.94 1016.69 1016.50 1016.36 1016.26 1016.19 1016.15 1016.13 1016.14 1016.18 1016.25 1016.35 1016.50 1016.68 1016.89 1017.12 1017.37 1017.62 1017.87 1018.12 1018.36 1018.60 1018.83 1019.06 1019.30 1019.53 1019.75 1019.96 1020.15 1020.31 1020.45 1020.55 1020.60
1020.38 1020.05 1019.71 1019.35 1018.97 1018.56 1018.15 1017.73 1017.33 1016.95 1016.62 1016.33 1016.09 1015.89 1015.72 1015.59 1015.49 1015.42 1015.38 1015.38 1015.41 1015.49 1015.59 1015.73 1015.88 1016.06 1016.23 1016.41 1016.59 1016.76 1016.93 1017.10 1017.28 1017.47 1017.68 1017.89 1018.11 1018.34 1018.57 1018.78 1018.98 1019.15 1019.28
1020.89 1020.48 1020.05 1019.58 1019.11 1018.62 1018.14 1017.68 1017.24 1016.84 1016.47 1016.15 1015.86 1015.60 1015.37 1015.18 1015.01 1014.87 1014.77 1014.71 1014.69 1014.70 1014.76 1014.85 1014.95 1015.06 1015.17 1015.28 1015.38 1015.48 1015.57 1015.67 1015.79 1015.92 1016.09 1016.28 1016.49 1016.73 1016.97 1017.23 1017.48 1017.71 1017.91
1021.57 1021.07 1020.52 1019.96 1019.38 1018.82 1018.28 1017.77 1017.30 1016.87 1016.48 1016.13 1015.79 1015.48 1015.19 1014.91 1014.66 1014.43 1014.25 1014.10 1014.01 1013.96 1013.95 1013.97 1014.01 1014.07 1014.12 1014.16 1014.19 1014.21 1014.24 1014.27 1014.33 1014.41 1014.53 1014.70 1014.90 1015.14 1015.41 1015.69 1015.99 1016.27 1016.54
1022.38 1021.77 1021.12 1020.45 1019.78 1019.14 1018.54 1018.00 1017.50 1017.05 1016.64 1016.25 1015.87 1015.50 1015.13 1014.76 1014.41 1014.08 1013.79 1013.54 1013.35 1013.21 1013.13 1013.08 1013.05 1013.04 1013.03 1013.01 1012.97 1012.93 1012.89 1012.87 1012.87 1012.91 1013.00 1013.14 1013.34 1013.58 1013.87 1014.19 1014.53 1014.86 1015.17
1023.26 1022.55 1021.81 1021.04 1020.29 1019.59 1018.94 1018.36 1017.85 1017.38 1016.94 1016.52 1016.09 1015.65 1015.20 1014.73 1014.27 1013.82 1013.41 1013.05 1012.75 1012.51 1012.32 1012.19 1012.08 1012.00 1011.91 1011.82 1011.73 1011.62 1011.52 1011.44 1011.39 1011.39 1011.46 1011.59 1011.78 1012.04 1012.35 1012.70 1013.07 1013.45 1013.81
1024.15 1023.37 1022.54 1021.70 1020.90 1020.15 1019.48 1018.88 1018.35 1017.87 1017.41 1016.95 1016.48 1015.97 1015.43 1014.86 1014.28 1013.71 1013.18 1012.69 1012.27 1011.91 1011.62 1011.39 1011.19 1011.01 1010.85 1010.68 1010.50 1010.32 1010.15 1010.01 1009.91 1009.87 1009.91 1010.02 1010.22 1010.49 1010.82 1011.20 1011.61 1012.02 1012.42
1025.03 1024.19 1023.31 1022.44 1021.61 1020.85 1020.17 1019.57 1019.04 1018.55 1018.07 1017.59 1017.06 1016.49 1015.86 1015.20 1014.52 1013.83 1013.17 1012.57 1012.03 1011.55 1011.15 1010.80 1010.50 1010.22 1009.95 1009.68 1009.40 1009.13 1008.88 1008.65 1008.49 1008.39 1008.38 1008.47 1008.65 1008.93 1009.27 1009.68 1010.11 1010.55 1010.98
1025.88 1025.02 1024.13 1023.26 1022.44 1021.70 1021.04 1020.46 1019.94 1019.45 1018.97 1018.45 1017.89 1017.25 1016.56 1015.81 1015.04 1014.25 1013.49 1012.78 1012.13 1011.55 1011.04 1010.58 1010.16 1009.76 1009.37 1008.98 1008.58 1008.19 1007.82 1007.49 1007.22 1007.04 1006.97 1007.00 1007.15 1007.40 1007.74 1008.15 1008.59 1009.05 1009.50
1026.71 1025.87 1025.01 1024.18 1023.42 1022.73 1022.11 1021.57 1021.07 1020.60 1020.10 1019.57 1018.96 1018.29 1017.53 1016.73 1015.88 1015.03 1014.20 1013.40 1012.67 1012.00 1011.39 1010.82 1010.29 1009.76 1009.24 1008.71 1008.17 1007.64 1007.13 1006.66 1006.26 1005.96 1005.78 1005.73 1005.80 1006.00 1006.30 1006.68 1007.11 1007.57 1008.04
1027.56 1026.76 1025.97 1025.22 1024.53 1023.92 1023.37 1022.87 1022.41 1021.94 1021.44 1020.89 1020.26 1019.54 1018.76 1017.91 1017.02 1016.13 1015.25 1014.41 1013.62 1012.88 1012.20 1011.54 1010.90 1010.27 1009.61 1008.94 1008.25 1007.56 1006.89 1006.26 1005.71 1005.26 1004.93 1004.76 1004.72 1004.82 1005.05 1005.37 1005.76 1006.20 1006.65
1028.44 1027.72 1027.02 1026.37 1025.78 1025.24 1024.76 1024.31 1023.87 1023.41 1022.91 1022.34 1021.69 1020.95 1020.14 1019.27 1018.37 1017.46 1016.57 1015.71 1014.89 1014.12 1013.38 1012.66 1011.94 1011.21 1010.44 1009.64 1008.81 1007.97 1007.13 1006.34 1005.62 1005.00 1004.51 1004.17 1003.99 1003.97 1004.08 1004.31 1004.63 1005.02 1005.45
1029.35 1028.74 1028.15 1027.60 1027.10 1026.65 1026.23 1025.81 1025.39 1024.93 1024.41 1023.82 1023.14 1022.38 1021.56 1020.69 1019.79 1018.88 1018.00 1017.14 1016.33 1015.54 1014.77 1014.02 1013.24 1012.43 1011.58 1010.68 1009.73 1008.76 1007.78 1006.84 1005.96 1005.17 1004.51 1004.01 1003.66 1003.48 1003.45 1003.56 1003.79 1004.10 1004.48
1030.30 1029.79 1029.31 1028.86 1028.45 1028.05 1027.67 1027.28 1026.85 1026.37 1025.82 1025.20 1024.49 1023.72 1022.88 1022.01 1021.11 1020.22 1019.36 1018.51 1017.70 1016.92 1016.14 1015.36 1014.56 1013.70 1012.80 1011.83 1010.81 1009.74 1008.66 1007.60 1006.59 1005.66 1004.85 1004.19 1003.68 1003.34 1003.16 1003.14 1003.25 1003.48 1003.79
1031.25 1030.83 1030.45 1030.08 1029.72 1029.37 1029.00 1028.60 1028.14 1027.63 1027.04 1026.37 1025.63 1024.83 1023.98 1023.10 1022.21 1021.33 1020.46 1019.63 1018.82 1018.04 1017.25 1016.46 1015.63 1014.76 1013.82 1012.82 1011.76 1010.66 1009.53 1008.40 1007.31 1006.29 1005.37 1004.58 1003.93 1003.45 1003.14 1002.99 1002.98 1003.11 1003.35
1032.15 1031.82 1031.50 1031.18 1030.86 1030.51 1030.13 1029.69 1029.19 1028.62 1027.98 1027.26 1026.48 1025.64 1024.77 1023.87 1022.97 1022.07 1021.20 1020.35 1019.52 1018.71 1017.90 1017.08 1016.23 1015.34 1014.40 1013.40 1012.35 1011.25 1010.12 1008.99 1007.88 1006.82 1005.85 1004.99 1004.25 1003.67 1003.25 1002.99 1002.89 1002.93 1003.11
1032.96 1032.68 1032.40 1032.11 1031.78 1031.42 1031.00 1030.51 1029.95 1029.32 1028.62 1027.84 1027.01 1026.13 1025.21 1024.28 1023.34 1022.40 1021.48 1020.58 1019.69 1018.82 1017.95 1017.08 1016.20 1015.29 1014.35 1013.37 1012.35 1011.30 1010.23 1009.15 1008.09 1007.06 1006.10 1005.23 1004.47 1003.85 1003.37 1003.04 1002.86 1002.84 1002.96
1033.63 1033.39 1033.13 1032.83 1032.48 1032.07 1031.60 1031.05 1030.43 1029.73 1028.96 1028.13 1027.24 1026.31 1025.35 1024.36 1023.36 1022.35 1021.35 1020.35 1019.36 1018.39 1017.43 1016.47 1015.53 1014.58 1013.63 1012.67 1011.71 1010.73 1009.76 1008.78 1007.82 1006.89 1006.01 1005.20 1004.48 1003.87 1003.38 1003.03 1002.82 1002.76 1002.84
1034.17 1033.93 1033.66 1033.34 1032.95 1032.49 1031.95 1031.34 1030.65 1029.89 1029.07 1028.18 1027.25 1026.26 1025.24 1024.18 1023.10 1021.99 1020.88 1019.75 1018.63 1017.52 1016.43 1015.37 1014.33 1013.33 1012.36 1011.42 1010.52 1009.63 1008.77 1007.93 1007.12 1006.33 1005.58 1004.88 1004.25 1003.70 1003.26 1002.93 1002.73 1002.66 1002.72
1034.55 1034.31 1034.01 1033.65 1033.21 1032.70 1032.11 1031.43 1030.69 1029.88 1029.01 1028.08 1027.09 1026.06 1024.97 1023.84 1022.66 1021.45 1020.20 1018.93 1017.66 1016.40 1015.16 1013.97 1012.83 1011.76 1010.76 1009.84 1008.99 1008.20 1007.47 1006.78 1006.13 1005.51 1004.92 1004.37 1003.86 1003.42 1003.06 1002.79 1002.62 1002.57 1002.63
Thickness
5508 5505 5501 5498 5495 5492 5489 5486 5482 5479 5475 5472 5469 5465 5462 5459 5455 5451 5447 5442 5438 5434 5430 5425 5421 5416 5411 5406 5402 5397 5392 5388 5386 5387 5382 5378 5374 5371 5368 5364 5361 5357 5354
5504 5500 5496 5493 5489 5486 5483 5480 5476 5473 5469 5466 5462 5459 5456 5452 5448 5444 5440 5436 5431 5427 5422 5417 5413 5409 5403 5398 5394 5389 5384 5380 5376 5376 5373 5368 5364 5360 5357 5354 5350 5346 5343
5499 5495 5491 5487 5484 5481 5478 5474 5470 5467 5463 5460 5456 5453 5450 5446 5442 5438 5434 5429 5425 5420 5416 5411 5406 5401 5396 5390 5385 5380 5376 5371 5367 5364 5362 5357 5354 5349 5346 5343 5339 5336 5332
5494 5490 5486 5482 5479 5475 5472 5469 5465 5461 5458 5454 5450 5447 5443 5439 5435 5430 5426 5421 5417 5413 5408 5403 5398 5394 5389 5383 5378 5372 5367 5362 5357 5353 5350 5347 5343 5338 5333 5331 5330 5326 5323
5489 5484 5481 5476 5472 5469 5466 5462 5459 5455 5451 5447 5444 5440 5436 5432 5428 5423 5418 5414 5409 5404 5399 5394 5390 5385 5380 5375 5370 5364 5359 5353 5348 5343 5339 5336 5332 5327 5322 5318 5316 5315 5312
5484 5480 5475 5470 5466 5462 5458 5455 5451 5447 5443 5440 5436 5432 5429 5425 5421 5417 5411 5406 5401 5396 5391 5386 5381 5376 5371 5366 5361 5356 5350 5344 5339 5333 5329 5324 5322 5316 5311 5305 5301 5300 5301
5479 5474 5469 5464 5459 5455 5451 5447 5443 5439 5435 5431 5428 5424 5420 5416 5412 5408 5403 5397 5392 5387 5382 5378 5373 5368 5362 5357 5352 5347 5341 5335 5330 5324 5318 5314 5310 5306 5300 5295 5290 5285 5284
5473 5468 5463 5457 5452 5448 5443 5439 5435 5430 5427 5423 5419 5415 5411 5408 5404 5399 5394 5389 5384 5379 5374 5369 5364 5359 5354 5349 5344 5339 5333 5327 5321 5314 5309 5305 5300 5294 5288 5283 5278 5275 5274
5468 5463 5457 5451 5445 5440 5436 5431 5427 5422 5418 5414 5410 5406 5402 5399 5395 5391 5386 5381 5376 5371 5366 5360 5355 5350 5346 5341 5336 5331 5326 5320 5313 5306 5300 5295 5290 5283 5276 5270 5265 5260 5261
5464 5458 5451 5445 5439 5434 5429 5424 5419 5415 5410 5406 5402 5398 5394 5390 5387 5383 5378 5372 5367 5362 5357 5352 5346 5342 5338 5332 5326 5321 5316 5312 5305 5298 5291 5286 5279 5273 5266 5259 5253 5246 5243
5458 5451 5444 5438 5432 5426 5421 5416 5411 5406 5402 5398 5394 5390 5385 5381 5378 5374 5369 5363 5359 5353 5349 5343 5338 5334 5329 5324 5317 5311 5306 5300 5293 5287 5281 5276 5270 5264 5257 5250 5243 5235 5231
5449 5443 5436 5430 5424 5419 5413 5408 5402 5397 5393 5388 5384 5380 5376 5372 5368 5364 5360 5355 5350 5345 5340 5335 5329 5324 5320 5314 5308 5302 5295 5288 5281 5276 5270 5266 5260 5255 5249 5241 5234 5227 5222
5440 5434 5428 5422 5417 5411 5405 5400 5394 5388 5384 5380 5375 5371 5368 5364 5359 5356 5351 5346 5340 5335 5330 5325 5319 5314 5309 5303 5297 5290 5283 5276 5270 5264 5259 5255 5249 5243 5237 5231 5226 5219 5215
5431 5425 5420 5414 5408 5402 5397 5392 5386 5381 5376 5371 5366 5362 5358 5354 5350 5346 5342 5336 5331 5325 5319 5314 5308 5303 5297 5292 5285 5278 5271 5264 5258 5253 5248 5243 5237 5231 5225 5219 5214 5209 5205
5421 5416 5411 5405 5399 5393 5388 5383 5378 5374 5369 5364 5359 5354 5349 5346 5343 5339 5333 5328 5322 5316 5309 5303 5297 5291 5285 5280 5273 5267 5260 5253 5246 5241 5235 5231 5226 5220 5215 5208 5201 5196 5191
5411 5406 5401 5395 5390 5384 5378 5373 5370 5365 5361 5356 5351 5346 5342 5338 5334 5329 5324 5319 5312 5306 5297 5290 5285 5279 5274 5268 5262 5256 5249 5242 5236 5230 5225 5220 5214 5208 5203 5197 5190 5184 5180
5401 5395 5389 5384 5379 5373 5367 5362 5358 5354 5350 5345 5341 5336 5332 5328 5323 5319 5313 5308 5301 5293 5284 5278 5273 5268 5262 5256 5249 5243 5238 5231 5225 5219 5214 5208 5202 5196 5190 5185 5179 5173 5170
5388 5384 5378 5373 5368 5362 5356 5351 5346 5341 5337 5332 5328 5324 5321 5316 5312 5306 5301 5294 5287 5280 5272 5266 5261 5255 5249 5243 5237 5231 5226 5220 5213 5207 5202 5196 5190 5184 5178 5173 5168 5162 5158
5375 5371 5366 5361 5356 5350 5344 5338 5333 5328 5323 5319 5314 5311 5307 5302 5298 5292 5286 5279 5273 5267 5261 5254 5248 5243 5237 5231 5225 5219 5213 5208 5202 5195 5190 5185 5178 5172 5167 5161 5157 5152 5147
5362 5358 5354 5349 5343 5337 5331 5326 5321 5315 5311 5306 5302 5298 5293 5288 5282 5277 5271 5264 5258 5253 5248 5242 5236 5230 5224 5219 5213 5207 5202 5196 5190 5184 5179 5174 5168 5162 5157 5152 5147 5142 5139
5349 5345 5340 5335 5331 5326 5320 5314 5309 5304 5299 5294 5290 5286 5283 5276 5270 5263 5257 5251 5245 5239 5234 5229 5224 5218 5212 5207 5201 5195 5189 5184 5179 5174 5168 5163 5158 5152 5148 5143 5138 5134 5130
5335 5330 5326 5322 5318 5312 5307 5302 5297 5292 5287 5282 5278 5272 5269 5262 5255 5249 5244 5238 5232 5226 5221 5215 5211 5206 5200 5195 5189 5183 5178 5173 5168 5162 5158 5154 5149 5144 5139 5135 5130 5126 5123
5321 5316 5311 5306 5302 5298 5293 5287 5283 5279 5275 5270 5265 5259 5253 5248 5243 5237 5232 5226 5220 5214 5209 5203 5197 5193 5188 5183 5177 5172 5168 5163 5158 5153 5148 5144 5140 5136 5132 5128 5124 5121 5118
5306 5302 5297 5292 5288 5283 5279 5274 5269 5265 5260 5256 5251 5246 5241 5236 5230 5226 5220 5214 5208 5203 5197 5192 5187 5182 5178 5173 5168 5163 5158 5154 5149 5145 5140 5136 5133 5129 5126 5122 5119 5116 5113
5292 5288 5283 5279 5274 5269 5265 5261 5256 5251 5247 5242 5238 5233 5229 5224 5219 5214 5209 5203 5197 5192 5187 5182 5176 5172 5167 5163 5159 5154 5150 5146 5142 5138 5134 5131 5128 5124 5120 5117 5114 5112 5109
5277 5273 5269 5265 5260 5256 5251 5248 5244 5239 5234 5230 5226 5221 5217 5212 5208 5202 5197 5192 5187 5182 5177 5172 5167 5162 5158 5154 5150 5146 5143 5140 5137 5134 5130 5127 5123 5120 5116 5113 5111 5108 5106